sat.trackr.live / text

‹ back to catalog

STARLINK-36079

NORAD 66897 · 2025-283V

PAYLOAD ACTIVE UNKNOWN

§ Identity

Operator
Country
US
Launch date
2025-12-04
Launch site
AFWTR
Launch vehicle
Mass (kg)
RCS (m²)

Purposes: comms

External: N2YO · Heavens-Above · Gunter

§ Orbital elements

Epoch: 2026-05-25T04:00:03.998880Z

Period
93.90 min
Inclination
53.1595°
Eccentricity
0.0001072
Mean motion
15.33539583 rev/d
Perigee alt
464.5 km
Apogee alt
466.0 km
Semi-major
6,843.4 km
B*
1.4107e-3
RAAN
29.0566°
Arg perigee
80.4296°
Mean anomaly
201.8989°
Rev number
570

§ Raw data

STARLINK-360791 66897U 25283V   26145.16671295  .00046296  00000+0  14107-2 0  99922 66897  53.1595  29.0566 0001072  80.4296 201.8989 15.33539583  5707

JSON: /api/v1/satellites/66897 · /tle

For live sub-satellite position, see the globe view (requires WebGL).

§ Visibility from observer

Set your observer location to see the next 7 days of passes ≥ 10°. The values pass through the URL so the page stays shareable.

No JS? Fill the form by hand. The geolocation button needs JavaScript.